| time (UTC) | temp F | wind direction | speed MPH | gust MPH | rain 1hr in | rain 24hr in | rain mn in | humidity % | barometer mb |
| 20260505102148 | 44 | 327 | 2.0 | 4.0 | 0.00 | 0.00 | 0.00 | 56 | 1008.9 |
| 20260505101149 | 45 | 0 | 0.0 | 4.0 | 0.00 | 0.00 | 0.00 | 55 | 1008.9 |
| 20260505100149 | 45 | 92 | 1.0 | 7.0 | 0.00 | 0.00 | 0.00 | 54 | 1008.9 |
| 20260505095149 | 44 | 0 | 0.0 | 0.0 | 0.00 | 0.00 | 0.00 | 55 | 1008.8 |
| 20260505094150 | 45 | 0 | 0.0 | 3.0 | 0.00 | 0.00 | 0.00 | 54 | 1009.7 |
| 20260505093149 | 45 | 0 | 0.0 | 1.0 | 0.00 | 0.00 | 0.00 | 54 | 1009.6 |
| 20260505092149 | 45 | 0 | 0.0 | 3.0 | 0.00 | 0.00 | 0.00 | 53 | 1009.6 |
| 20260505091149 | 46 | 0 | 0.0 | 2.0 | 0.00 | 0.00 | 0.00 | 52 | 1009.8 |
| 20260505090149 | 47 | 0 | 0.0 | 6.0 | 0.00 | 0.00 | 0.00 | 51 | 1009.7 |
| 20260505085149 | 48 | 112 | 2.0 | 16.0 | 0.00 | 0.00 | 0.00 | 50 | 1009.9 |
| 20260505084149 | 48 | 129 | 10.0 | 16.0 | 0.00 | 0.00 | 0.00 | 50 | 1009.9 |
| 20260505083149 | 47 | 166 | 10.0 | 16.0 | 0.00 | 0.00 | 0.00 | 51 | 1009.9 |
| 20260505082149 | 48 | 0 | 0.0 | 9.0 | 0.00 | 0.00 | 0.00 | 49 | 1010.0 |
| 20260505081149 | 48 | 118 | 1.0 | 12.0 | 0.00 | 0.00 | 0.00 | 49 | 1010.1 |
| 20260505080149 | 48 | 179 | 6.0 | 18.0 | 0.00 | 0.00 | 0.00 | 49 | 1010.1 |
| 20260505075149 | 48 | 133 | 9.0 | 14.0 | 0.00 | 0.00 | 0.00 | 48 | 1010.1 |
| 20260505074149 | 48 | 0 | 0.0 | 12.0 | 0.00 | 0.00 | 0.00 | 47 | 1010.1 |
| 20260505072149 | 49 | 112 | 6.0 | 10.0 | 0.00 | 0.00 | 0.00 | 45 | 1010.0 |
| 20260505071149 | 50 | 0 | 0.0 | 12.0 | 0.00 | 0.00 | 0.00 | 44 | 1010.1 |
| 20260505070149 | 50 | 143 | 2.0 | 11.0 | 0.00 | 0.00 | 0.00 | 43 | 1009.9 |
| 20260505065149 | 50 | 201 | 4.0 | 19.0 | 0.00 | 0.00 | 0.00 | 43 | 1009.8 |
| 20260505064150 | 50 | 179 | 5.0 | 14.0 | 0.00 | 0.00 | 0.00 | 42 | 1009.7 |
| 20260505063149 | 50 | 180 | 9.0 | 17.0 | 0.00 | 0.00 | 0.00 | 42 | 1009.6 |
| 20260505062149 | 50 | 169 | 9.0 | 14.0 | 0.00 | 0.00 | 0.00 | 42 | 1009.8 |
| 20260505061149 | 51 | 164 | 7.0 | 17.0 | 0.00 | 0.00 | 0.00 | 41 | 1009.7 |
| 20260505060149 | 51 | 146 | 6.0 | 19.0 | 0.00 | 0.00 | 0.00 | 41 | 1009.7 |
| 20260505055149 | 51 | 172 | 10.0 | 17.0 | 0.00 | 0.00 | 0.00 | 41 | 1009.6 |
| 20260505054149 | 51 | 179 | 8.0 | 23.0 | 0.00 | 0.00 | 0.00 | 41 | 1009.7 |
| 20260505053149 | 51 | 165 | 13.0 | 22.0 | 0.00 | 0.00 | 0.00 | 40 | 1009.9 |
| 20260505052149 | 51 | 163 | 13.0 | 21.0 | 0.00 | 0.00 | 0.00 | 40 | 1009.8 |
| 20260505051149 | 51 | 142 | 9.0 | 17.0 | 0.00 | 0.00 | 0.00 | 40 | 1009.8 |
| 20260505050149 | 52 | 157 | 7.0 | 14.0 | 0.00 | 0.00 | 0.00 | 40 | 1009.8 |
| 20260505041149 | 52 | 190 | 6.0 | 12.0 | 0.00 | 0.00 | 0.00 | 39 | 1009.2 |
| 20260505040149 | 53 | 165 | 7.0 | 14.0 | 0.00 | 0.00 | 0.00 | 39 | 1009.1 |
| 20260505035149 | 53 | 147 | 2.0 | 13.0 | 0.00 | 0.00 | 0.00 | 39 | 1009.2 |
| 20260505034149 | 53 | 212 | 2.0 | 12.0 | 0.00 | 0.00 | 0.00 | 38 | 1008.9 |
| 20260505033149 | 53 | 174 | 5.0 | 12.0 | 0.00 | 0.00 | 0.00 | 38 | 1008.9 |
| 20260505032149 | 54 | 206 | 3.0 | 9.0 | 0.00 | 0.00 | 0.00 | 37 | 1008.8 |
| 20260505031149 | 54 | 177 | 2.0 | 13.0 | 0.00 | 0.00 | 0.00 | 36 | 1008.8 |
| 20260505030149 | 55 | 158 | 7.0 | 19.0 | 0.00 | 0.00 | 0.00 | 36 | 1008.7 |
| 20260505025149 | 55 | 169 | 5.0 | 15.0 | 0.00 | 0.00 | 0.00 | 36 | 1008.5 |
| 20260505024149 | 55 | 197 | 3.0 | 15.0 | 0.00 | 0.00 | 0.00 | 36 | 1008.4 |
| 20260505023150 | 55 | 184 | 10.0 | 15.0 | 0.00 | 0.00 | 0.00 | 36 | 1008.2 |
| 20260505022150 | 55 | 200 | 5.0 | 15.0 | 0.00 | 0.00 | 0.00 | 35 | 1009.0 |
| 20260505021150 | 56 | 158 | 9.0 | 17.0 | 0.00 | 0.00 | 0.00 | 34 | 1008.7 |
| 20260505020150 | 56 | 143 | 9.0 | 17.0 | 0.00 | 0.00 | 0.00 | 34 | 1008.6 |
| 20260505015150 | 57 | 145 | 8.0 | 16.0 | 0.00 | 0.00 | 0.00 | 33 | 1008.6 |
| 20260505014150 | 57 | 183 | 13.0 | 21.0 | 0.00 | 0.00 | 0.00 | 32 | 1008.4 |
| 20260505013150 | 57 | 154 | 10.0 | 20.0 | 0.00 | 0.00 | 0.00 | 32 | 1008.5 |
| 20260505012150 | 58 | 139 | 10.0 | 24.0 | 0.00 | 0.00 | 0.00 | 32 | 1008.5 |
| 20260505011150 | 59 | 157 | 10.0 | 27.0 | 0.00 | 0.00 | 0.00 | 30 | 1008.6 |
| 20260505010150 | 59 | 150 | 5.0 | 26.0 | 0.00 | 0.00 | 0.00 | 30 | 1008.6 |
| 20260505005150 | 59 | 164 | 17.0 | 27.0 | 0.00 | 0.00 | 0.00 | 29 | 1008.5 |
| 20260505004150 | 59 | 140 | 10.0 | 25.0 | 0.00 | 0.00 | 0.00 | 28 | 1008.4 |
| 20260505003153 | 60 | 170 | 7.0 | 26.0 | 0.00 | 0.00 | 0.00 | 27 | 1008.5 |
| 20260505002151 | 60 | 160 | 18.0 | 28.0 | 0.00 | 0.00 | 0.00 | 25 | 1008.4 |
| 20260505001150 | 61 | 168 | 14.0 | 25.0 | 0.00 | 0.00 | 0.00 | 23 | 1008.3 |
| 20260505000153 | 61 | 123 | 7.0 | 23.0 | 0.00 | 0.00 | 0.00 | 22 | 1008.1 |
| 20260504235150 | 61 | 161 | 23.0 | 35.0 | 0.00 | 0.00 | 0.00 | 19 | 1008.1 |
| 20260504234151 | 61 | 145 | 15.0 | 26.0 | 0.00 | 0.00 | 0.00 | 19 | 1008.1 |
| 20260504233151 | 61 | 146 | 14.0 | 34.0 | 0.00 | 0.00 | 0.00 | 23 | 1008.3 |
| 20260504232150 | 60 | 133 | 16.0 | 25.0 | 0.00 | 0.00 | 0.00 | 25 | 1007.9 |
| 20260504231150 | 60 | 179 | 13.0 | 32.0 | 0.00 | 0.00 | 0.00 | 27 | 1008.1 |
| 20260504230152 | 60 | 175 | 19.0 | 33.0 | 0.00 | 0.00 | 0.00 | 27 | 1008.0 |
| 20260504225150 | 61 | 159 | 15.0 | 34.0 | 0.00 | 0.00 | 0.00 | 27 | 1007.8 |
| 20260504224152 | 62 | 195 | 19.0 | 33.0 | 0.00 | 0.00 | 0.00 | 26 | 1007.5 |
| 20260504223150 | 61 | 174 | 10.0 | 26.0 | 0.00 | 0.00 | 0.00 | 30 | 1008.0 |
| 20260504222153 | 61 | 174 | 23.0 | 35.0 | 0.00 | 0.00 | 0.00 | 30 | 1008.5 |
| 20260504221150 | 62 | 134 | 18.0 | 26.0 | 0.00 | 0.00 | 0.00 | 30 | 1008.7 |
| 20260504220150 | 62 | 193 | 23.0 | 34.0 | 0.00 | 0.00 | 0.00 | 28 | 1008.8 |
| 20260504215151 | 62 | 186 | 29.0 | 38.0 | 0.00 | 0.00 | 0.00 | 28 | 1008.8 |
| 20260504214150 | 62 | 178 | 18.0 | 27.0 | 0.00 | 0.00 | 0.00 | 27 | 1008.9 |
| 20260504213150 | 62 | 210 | 7.0 | 27.0 | 0.00 | 0.00 | 0.00 | 28 | 1009.1 |
| 20260504212150 | 62 | 140 | 14.0 | 33.0 | 0.00 | 0.00 | 0.00 | 29 | 1009.1 |
| 20260504211150 | 61 | 155 | 17.0 | 33.0 | 0.00 | 0.00 | 0.00 | 28 | 1009.4 |
| 20260504210151 | 61 | 191 | 26.0 | 37.0 | 0.00 | 0.00 | 0.00 | 28 | 1009.3 |
| 20260504205151 | 62 | 137 | 17.0 | 29.0 | 0.00 | 0.00 | 0.00 | 29 | 1009.2 |
| 20260504204150 | 61 | 164 | 13.0 | 28.0 | 0.00 | 0.00 | 0.00 | 28 | 1009.2 |
| 20260504203150 | 61 | 165 | 20.0 | 33.0 | 0.00 | 0.00 | 0.00 | 29 | 1009.2 |
| 20260504202151 | 61 | 169 | 10.0 | 30.0 | 0.00 | 0.00 | 0.00 | 31 | 1009.2 |
| 20260504201150 | 61 | 151 | 18.0 | 31.0 | 0.00 | 0.00 | 0.00 | 32 | 1009.1 |
| 20260504200150 | 61 | 142 | 15.0 | 37.0 | 0.00 | 0.00 | 0.00 | 33 | 1009.1 |
| 20260504195150 | 61 | 144 | 20.0 | 31.0 | 0.00 | 0.00 | 0.00 | 32 | 1008.9 |
| 20260504194150 | 62 | 156 | 17.0 | 35.0 | 0.00 | 0.00 | 0.00 | 32 | 1009.3 |
| 20260504193152 | 62 | 140 | 15.0 | 28.0 | 0.00 | 0.00 | 0.00 | 36 | 1009.1 |
| 20260504192151 | 62 | 136 | 18.0 | 28.0 | 0.00 | 0.00 | 0.00 | 36 | 1009.2 |
| 20260504191151 | 60 | 133 | 15.0 | 34.0 | 0.00 | 0.00 | 0.00 | 37 | 1009.4 |
| 20260504190152 | 61 | 128 | 17.0 | 33.0 | 0.00 | 0.00 | 0.00 | 38 | 1009.4 |
| 20260504185151 | 61 | 183 | 18.0 | 31.0 | 0.00 | 0.00 | 0.00 | 37 | 1009.4 |
| 20260504183151 | 62 | 141 | 7.0 | 31.0 | 0.00 | 0.00 | 0.00 | 42 | 1009.5 |
| 20260504182151 | 61 | 159 | 13.0 | 28.0 | 0.00 | 0.00 | 0.00 | 40 | 1009.5 |
| 20260504181151 | 60 | 172 | 5.0 | 29.0 | 0.00 | 0.00 | 0.00 | 46 | 1009.6 |
| 20260504180151 | 60 | 177 | 23.0 | 36.0 | 0.00 | 0.00 | 0.00 | 41 | 1010.4 |
| 20260504175151 | 61 | 194 | 14.0 | 27.0 | 0.00 | 0.00 | 0.00 | 41 | 1010.5 |
| 20260504173152 | 61 | 159 | 10.0 | 22.0 | 0.00 | 0.00 | 0.00 | 46 | 1010.6 |
| 20260504171153 | 58 | 139 | 12.0 | 29.0 | 0.00 | 0.00 | 0.00 | 46 | 1010.6 |
| 20260504170151 | 58 | 147 | 14.0 | 29.0 | 0.00 | 0.00 | 0.00 | 46 | 1010.5 |
| 20260504160152 | 58 | 143 | 13.0 | 22.0 | 0.00 | 0.00 | 0.00 | 44 | 1010.5 |
| 20260504150151 | 57 | 107 | 9.0 | 13.0 | 0.00 | 0.00 | 0.00 | 46 | 1010.3 |
| 20260504141151 | 54 | 0 | 0.0 | 1.0 | 0.00 | 0.00 | 0.00 | 53 | 1010.4 |
| 20260504140152 | 54 | 0 | 0.0 | 2.0 | 0.00 | 0.00 | 0.00 | 54 | 1010.5 |
| 20260504130152 | 54 | 0 | 0.0 | 3.0 | 0.00 | 0.00 | 0.00 | 50 | 1009.7 |
| 20260504120151 | 56 | 151 | 1.0 | 7.0 | 0.00 | 0.00 | 0.00 | 47 | 1009.5 |
| 20260504110152 | 57 | 159 | 1.0 | 3.0 | 0.00 | 0.00 | 0.00 | 45 | 1009.7 |